SL-14 DEB, 45289

Orbit data source: Space-Track

SL-14 DEB, 45289 is space debris in LEO originally from a launch on Thu, 15 Aug 1991 UTC launched from the Plesetsk Missile And Space Complex (PKMTR). Debris objects in space refer to the collection of defunct objects orbiting the Earth. Examples of debris include non-operational satellites, rocket bodies, and fragments generated from explosions, collisions, or faulty payload assembly.

Loading next visibility...
Identifier
45289, 1991-056AB
Orbit
LEO
Last TLE update
19 hours ago
Origin
Manufacturer
Unknown
Mission
Spacecraft
Bus & Motor
Unknown
Mass
Unknown
Launch date (UTC)
1991-08-15 (34 years ago)
Launch vehicle
Unknown
Launch site
Plesetsk Missile And Space Complex (PKMTR)
Object type
Payload
Rocket body
Debris
Shape & HBR
Unknown
Radar Cross Section
Medium (>0.1 m² and <1 m²)

Expand to show TLE details & history

TLE from 19 hours ago
0 SL-14 DEB
1 45289U 91056AB  25128.52083200  .00000168  00000-0  60898-3 0  9996
2 45289  82.5343 141.6721 0182298  89.9366 272.2625 12.82928538244361
Epoch: 2025-05-08T12:29Z
Definitive object data (Epoch: 2025-05-08T12:29:59.884Z)
Latitude
-0.00007°
Longitude
87.58243°
Altitude
1,329.49 km
Speed
7.194 km/s
True Right ascension
09h 26m 41s
True Declination
0° 00' 00"
Sunlit
Object was in daylight at TLE epoch
Visualization TLE readout
Latitude
-39.93266°
Longitude
80.80155°
Altitude
1,430.225 km
Speed
7.105 km/s
Apparent Right ascension
06h 26m 26s
Apparent Declination
-48° 54' 59"
Sunlit
Object is in daylight
Visualization observer readout
Local Sidereal Time
15:09:15
Azimuth
238.682° WSW
Elevation
-54.327°
Doppler factor
1
Orbital elements
Apogee altitude
1,467.473 km
Perigee altitude
1,186.546 km
Semi-major axis
7,705.147 km
Eccentricity
0.0182298
Inclination
82.5343°
RAAN
141.6721°
Arg. of periapsis
89.9366°
True anomaly
270.17373°
Mean anomaly
272.2625°
Eccentric anomaly
271.21825°
Mean motion
3.20902 °/min
BSTAR
0.00060898
Orbital period
112.18 mins
Loading maneuver chart data...
Loading SW <> Apogee altitude chart data...
Loading historical data...
Loading historical data...
Loading historical data...
Loading historical data...
Loading historical data...
Loading historical data...
Loading historical data...

SL-14 DEB Visibility forecast

Observer location: undefined°, undefined°

Span
Click to sort rows by Start time (UTC) header in descending order
Start Az.
Max El. time (UTC)
Max El. Az.
Max El.
End time (UTC)
End Az.
12 mins2025-05-09 11:33:19.414Z14.341° NNE2025-05-09 11:39:19.414Z75.114° E27.489°2025-05-09 11:45:19.414Z131.078° SE
12 mins2025-05-09 13:27:19.414Z333.94° NNW2025-05-09 13:32:19.414Z272.446° WNW35.946°2025-05-09 13:39:19.414Z200.813° SSW
10 mins2025-05-10 00:11:19.414Z129.408° SE2025-05-10 00:16:19.414Z80.339° E23.287°2025-05-10 00:21:19.414Z34.499° NE
13 mins2025-05-10 02:02:19.414Z207.032° SW2025-05-10 02:08:19.414Z271.484° WNW39.25°2025-05-10 02:15:19.414Z357.877° N
|